Zurück zum Katalog

STARLINK-4082

AktivKommunikationVLEO
NORAD 52658·PAYLOAD·🇺🇸 United States

Gestartet May 18, 2022 von Cape Canaveral Space Force Station

Loading…

Nächste Überflüge (nächste 24 Stunden)

TLE

AktuellSource: CelesTrak SupGP

Epoche: Sep 14, 2026, 21:00 UTC

1 52658C 22053C   26257.87548611  .00016679  00000+0  10460-2 0  2578
2 52658  53.1599  24.2048 0001199  81.2935 273.0305 15.08825553    11

Verfolge STARLINK-4082 in Echtzeit mit AllMySat

Download on the App Store